SL-14 R/B

Satellite information

Favourite Embed

Satellite Type and Status

ROCKET BODYIN ORBIT

Key statistics

Satellite SL-14 R/B at a glance.

Uptime

14089

Days in orbit

Revolutions

≈ 14.9

Per day

Orbit

LEO

Low Earth Orbit

Inclination

82.5

Latest

Satellite identification and parameters

Extended collection of information and parameters for SL-14 R/B.

Object identification

Identified? True

Debris? False

Object name: SL-14 R/B

International designator: 1986-097B

Object number (NORAD): 17192

Object ID (CCSDS): 17192

Country: COMMONWEALTH OF INDEPENDENT STATES (CIS)

Current information (Y/N): Y

RCS size: LARGE

Orbital parameters

Period: 96.931 minutes

Inclination: 82.5057 deg

SMA: 6989.849 km

Apoapsis: 624.063 km

Periapsis: 599.365 km

RAAN: 14.852 deg

Eccentricy: 0.0017667

Argument of periapsis: 119.64 deg

Mean anomaly: 307.7654 deg

Mean motion: 14.8559711 rev/day

Mean motion (dot): 0.00000389 rev/day2

B* drag term: 0.000041981 1/REarth

Two-line elements (TLE)

Creation date: July 5, 2025, 5:45 p.m.

Reference frame: TEME

Reference center: EARTH

Epoch: July 5, 2025, 3:06 p.m. UTC

TLE line 0: 0 SL-14 R/B

TLE line 1: 1 17192U 86097B 25186.62984773 .00000389 00000-0 41981-4 0 9995

TLE line 2: 2 17192 82.5057 14.8520 0017667 119.6400 307.7654 14.85597110 63661

Live tracking on map

Real-time ground track for satellite SL-14 R/B.

In-orbit conjunctions

A list of the most updated potential collisions computed for object SL-14 R/B.

Target Orbit TCA Probability of collision Miss distance Type
CZ-6A DEB SSO 2025-06-01 06:45:43 0.001838084 28.0 (m) DEBRIS
CZ-6A DEB LEO 2025-04-23 18:53:52 0.0003625193 175.0 (m) DEBRIS
FENGYUN 1C DEB SSO 2024-06-12 02:39:21 0.0002798824 146.0 (m) DEBRIS

Associated space launch

Tselina-R series ELINT satellite

SL-14 R/B was lifted into orbit during the mission ‘Tsiklon-3 | Tselina-R 1’, on board a Tsiklon-3 space rocket.

The launch took place on Dec. 10, 1986, 7:30 a.m. from 32/2.

For more information about the launch, click the button.

Launch to space Tsiklon-3 | Tselina-R 1
Tsiklon-3 | Tselina-R 1

Agency: N/A

Status: Launch Successful

Launch date: Dec. 10, 1986, 7:30 a.m. UTC

Rocket: Tsiklon-3

Launch pad: 32/2

Location: Plesetsk Cosmodrome, Russian Federation

...

Latest news about this satellite

There are no fresh news available about this satellite. Check back as we update our databases every day.


Newsletter sign-up

Weekly statistics, charts and insights to help you stay on top of the space industry.